CEST,Max TemperatureF,Mean TemperatureF,Min TemperatureF,Max Dew PointF,MeanDew PointF,Min DewpointF,Max Humidity, Mean Humidity, Min Humidity, Max Sea Level PressureIn, Mean Sea Level PressureIn, Min Sea Level PressureIn, Max VisibilityMiles, Mean VisibilityMiles, Min VisibilityMiles, Max Wind SpeedMPH, Mean Wind SpeedMPH, Max Gust SpeedMPH,PrecipitationIn, CloudCover, Events, WindDirDegrees
2013-7-1,73,60,48,54,49,45,87,63,31,30.16,30.09,30.02,6,6,6,14,9,,0.00,3,,222
2013-7-2,78,65,52,59,53,48,82,62,36,30.06,30.01,29.93,6,6,6,11,6,,0.00,2,,222
2013-7-3,77,66,55,63,57,52,94,77,49,30.01,29.94,29.88,19,6,5,16,6,,0.12,2,Rain-Thunderstorm,172
2013-7-4,73,66,58,61,59,57,100,80,57,30.24,30.11,29.99,12,6,6,11,7,,0.00,2,Rain,281
2013-7-5,74,66,58,61,59,57,100,81,61,30.39,30.31,30.24,19,7,5,15,6,,0.00,1,,328
2013-7-6,74,66,57,61,59,55,94,77,52,30.39,30.38,30.33,16,5,2,12,8,,0.00,3,,359
2013-7-7,75,66,56,59,55,52,94,67,36,30.42,30.40,30.34,12,7,6,12,5,,0.00,3,,358
2013-7-8,76,65,54,57,54,52,88,64,39,30.42,30.39,30.31,6,6,6,9,4,,0.00,2,,27
2013-7-9,78,66,54,59,55,52,94,64,37,30.36,30.25,30.10,19,8,6,8,4,,0.00,3,,20
2013-7-10,77,68,59,59,56,54,82,64,38,30.12,30.03,29.93,16,7,6,16,8,,0.00,2,,331
2013-7-11,63,57,51,54,50,48,88,73,52,30.09,30.05,30.01,19,8,6,17,9,,0.00,4,Rain,307
2013-7-12,70,61,52,52,50,48,88,67,39,30.15,30.11,30.06,19,7,6,15,8,,0.00,3,,312
2013-7-13,72,60,49,54,51,47,94,67,37,30.16,30.13,30.09,16,8,6,15,7,,0.00,1,,308
2013-7-14,74,62,50,57,53,48,88,67,37,30.17,30.13,30.08,6,6,6,14,8,,0.00,1,,309
2013-7-15,70,60,51,56,51,46,94,64,35,30.22,30.15,30.12,19,8,6,15,8,,0.00,2,,327
2013-7-16,78,63,48,54,50,46,94,60,27,30.27,30.23,30.16,6,6,6,9,6,,0.00,3,,256
2013-7-17,80,66,52,56,53,49,88,58,28,30.24,30.20,30.13,19,16,6,10,4,,0.00,1,,7
2013-7-18,80,68,55,57,54,51,82,59,33,30.24,30.20,30.15,19,10,6,12,4,,0.00,2,,12
2013-7-19,80,69,58,57,56,54,82,61,33,30.21,30.14,30.04,16,9,6,13,6,,0.00,1,,337
2013-7-20,76,66,55,57,54,52,82,65,36,30.15,30.13,30.09,19,7,6,12,8,,0.00,3,,344
2013-7-21,79,67,55,57,53,50,88,60,32,30.21,30.18,30.11,6,6,6,8,4,,0.00,1,,30
2013-7-22,84,68,51,57,52,46,88,54,23,30.15,30.09,29.96,6,6,6,8,3,,0.00,1,,28
2013-7-23,85,70,54,57,52,48,88,53,21,30.01,29.98,29.90,,,,13,4,,0.00,,,2
2013-7-24,85,68,52,63,55,47,94,60,19,30.04,29.99,29.91,6,6,5,15,5,,0.35,2,Rain-Thunderstorm,360
2013-7-25,80,70,61,66,62,59,94,77,51,30.06,30.04,30.00,16,7,4,8,5,,0.00,3,Rain-Thunderstorm,312
2013-7-26,87,74,61,63,61,59,94,63,37,30.06,30.02,29.91,19,7,5,7,4,,0.00,2,,95
2013-7-27,94,78,62,64,61,57,94,56,23,29.98,29.91,29.78,16,14,12,9,4,,0.00,,,154
2013-7-28,94,80,66,64,61,57,73,50,21,29.95,29.89,29.78,19,19,19,8,5,,0.00,,,124
2013-7-29,84,73,62,68,64,59,100,77,41,29.98,29.91,29.77,12,6,1,28,12,39,1.10,3,Rain-Thunderstorm,314
2013-7-30,76,68,59,63,57,52,94,74,35,30.09,30.05,29.95,19,6,4,28,14,26,0.01,5,Rain,264
2013-7-31,77,68,59,59,57,54,94,69,42,30.15,30.09,30.05,6,6,6,17,11,,0.00,3,,250